CHH7372 ZUCK-ZJHK

Flight info

Callsign CHH7372
Flight time 1h 44m
Altitude 31000
Route VILUS6Y VILUS W180 ELBAV W181 DUDIT DCT UVUNO R339 BHY W70 LIDLU LIDLU9XA
Aircraft B738/M-SDE1FGHILORVWXY/HB1

Departure

Time 2026-04-29 11:17
Airport Chongqing Jiangbei International Airport (ZUCK)

Arrival

Time 2026-04-29 13:02
Airport Haikou Meilan International Airport (ZJHK)
Time Latitude Longitude Altitude Speed Heading
2026-04-29 10:53 29.71505 106.65407 1374 ft 0 kts 134°
2026-04-29 11:04 29.71513 106.65397 1374 ft 2 kts 135°
2026-04-29 11:05 29.71525 106.65387 1374 ft 2 kts 160°
2026-04-29 11:05 29.71540 106.65383 1374 ft 2 kts 175°
2026-04-29 11:05 29.71555 106.65381 1374 ft 2 kts 169°
2026-04-29 11:05 29.71568 106.65379 1374 ft 1 kts 155°
2026-04-29 11:06 29.71574 106.65368 1374 ft 2 kts 101°
2026-04-29 11:06 29.71575 106.65351 1374 ft 2 kts 85°
2026-04-29 11:06 29.71575 106.65339 1374 ft 0 kts 97°
2026-04-29 11:06 29.71576 106.65332 1374 ft 0 kts 93°
2026-04-29 11:10 29.71576 106.65333 1374 ft 0 kts 93°
2026-04-29 11:10 29.71576 106.65335 1374 ft 2 kts 93°
2026-04-29 11:10 29.71575 106.65351 1374 ft 1 kts 92°
2026-04-29 11:11 29.71575 106.65357 1374 ft 0 kts 89°
2026-04-29 11:11 29.71606 106.65424 1374 ft 24 kts 44°
2026-04-29 11:11 29.71791 106.65513 1374 ft 28 kts 16°
2026-04-29 11:11 29.71997 106.65581 1374 ft 31 kts 16°
2026-04-29 11:12 29.72067 106.65696 1374 ft 18 kts 110°
2026-04-29 11:12 29.72004 106.65929 1374 ft 41 kts 107°
2026-04-29 11:12 29.72019 106.66139 1374 ft 23 kts 20°
2026-04-29 11:12 29.72227 106.66211 1374 ft 47 kts 17°
2026-04-29 11:13 29.72601 106.66341 1374 ft 55 kts 17°
2026-04-29 11:13 29.72954 106.66464 1374 ft 51 kts 17°
2026-04-29 11:13 29.73319 106.66592 1374 ft 66 kts 17°
2026-04-29 11:13 29.73769 106.66750 1374 ft 65 kts 17°
2026-04-29 11:14 29.74182 106.66892 1374 ft 59 kts 17°
2026-04-29 11:14 29.74557 106.67023 1374 ft 39 kts 17°
2026-04-29 11:14 29.74710 106.67080 1374 ft 14 kts 32°
2026-04-29 11:14 29.74727 106.67146 1374 ft 0 kts 105°
2026-04-29 11:15 29.74723 106.67159 1374 ft 4 kts 106°
2026-04-29 11:15 29.74722 106.67164 1374 ft 0 kts 106°
2026-04-29 11:15 29.74722 106.67165 1374 ft 0 kts 106°
2026-04-29 11:15 29.74720 106.67174 1374 ft 1 kts 106°
2026-04-29 11:16 29.74701 106.67231 1374 ft 15 kts 127°
2026-04-29 11:16 29.74636 106.67251 1374 ft 2 kts 196°
2026-04-29 11:16 29.74541 106.67219 1374 ft 49 kts 197°
2026-04-29 11:16 29.73868 106.66987 1375 ft 143 kts 197°
2026-04-29 11:17 29.72730 106.66598 1566 ft 189 kts 197°
2026-04-29 11:17 29.71520 106.66187 2633 ft 177 kts 193°
2026-04-29 11:17 29.70304 106.66243 3424 ft 187 kts 165°
2026-04-29 11:17 29.68961 106.66587 3996 ft 213 kts 178°
2026-04-29 11:18 29.67461 106.66495 4878 ft 221 kts 184°
2026-04-29 11:18 29.65968 106.66418 5742 ft 228 kts 182°
2026-04-29 11:18 29.64369 106.66360 6664 ft 232 kts 182°
2026-04-29 11:18 29.62767 106.66307 7535 ft 237 kts 182°
2026-04-29 11:19 29.61047 106.66253 8125 ft 260 kts 181°
2026-04-29 11:19 29.59160 106.66193 8751 ft 283 kts 182°
2026-04-29 11:19 29.57134 106.66166 9594 ft 305 kts 176°
2026-04-29 11:19 29.55028 106.66823 10414 ft 326 kts 152°
2026-04-29 11:20 29.53109 106.68174 11559 ft 335 kts 148°
2026-04-29 11:20 29.51078 106.69572 12673 ft 344 kts 150°
2026-04-29 11:20 29.48990 106.70916 13810 ft 350 kts 151°
2026-04-29 11:20 29.46885 106.72260 14892 ft 356 kts 151°
2026-04-29 11:21 29.44727 106.73637 15941 ft 362 kts 151°
2026-04-29 11:21 29.42509 106.75044 16956 ft 367 kts 151°
2026-04-29 11:21 29.40266 106.76463 17924 ft 373 kts 151°
2026-04-29 11:21 29.38001 106.77894 18848 ft 378 kts 151°
2026-04-29 11:22 29.35705 106.79343 19734 ft 383 kts 151°
2026-04-29 11:22 29.33372 106.80813 20586 ft 388 kts 151°
2026-04-29 11:22 29.31004 106.82304 21407 ft 393 kts 151°
2026-04-29 11:22 29.28617 106.83807 22192 ft 397 kts 151°
2026-04-29 11:23 29.26190 106.85334 22951 ft 402 kts 151°
2026-04-29 11:23 29.23741 106.86874 23680 ft 406 kts 151°
2026-04-29 11:23 29.21256 106.88435 24384 ft 411 kts 151°
2026-04-29 11:23 29.18746 106.90011 25062 ft 415 kts 151°
2026-04-29 11:24 29.16221 106.91595 25742 ft 418 kts 151°
2026-04-29 11:24 29.13696 106.93152 26608 ft 416 kts 154°
2026-04-29 11:24 29.11025 106.94453 27404 ft 414 kts 161°
2026-04-29 11:24 29.08280 106.95270 28158 ft 413 kts 171°
2026-04-29 11:25 29.05438 106.95546 28888 ft 411 kts 179°
2026-04-29 11:25 29.02570 106.95500 29596 ft 410 kts 181°
2026-04-29 11:25 28.99755 106.95454 30138 ft 412 kts 180°
2026-04-29 11:25 28.96875 106.95448 30857 ft 409 kts 180°
2026-04-29 11:26 28.91169 106.95412 31000 ft 410 kts 180°
2026-04-29 11:26 28.85533 106.95355 31000 ft 405 kts 180°
2026-04-29 11:27 28.79902 106.95295 31000 ft 407 kts 180°
2026-04-29 11:27 28.74232 106.95231 31000 ft 407 kts 180°
2026-04-29 11:28 28.68582 106.95164 31000 ft 407 kts 180°
2026-04-29 11:28 28.62948 106.95099 31000 ft 407 kts 180°
2026-04-29 11:29 28.57281 106.95032 31000 ft 407 kts 180°
2026-04-29 11:29 28.51643 106.94965 31000 ft 407 kts 180°
2026-04-29 11:30 28.46003 106.94898 31000 ft 409 kts 180°
2026-04-29 11:30 28.43133 106.94865 31003 ft 423 kts 180°
2026-04-29 11:30 28.40148 106.94829 31000 ft 438 kts 180°
2026-04-29 11:31 28.34004 106.94756 30998 ft 441 kts 180°
2026-04-29 11:31 28.27918 106.94685 31000 ft 438 kts 180°
2026-04-29 11:32 28.21824 106.94669 30999 ft 439 kts 178°
2026-04-29 11:32 28.15744 106.95063 30999 ft 440 kts 176°
2026-04-29 11:33 28.09620 106.95422 30999 ft 439 kts 177°
2026-04-29 11:33 28.03541 106.95766 30999 ft 439 kts 177°
2026-04-29 11:34 27.97431 106.96091 30999 ft 439 kts 177°
2026-04-29 11:34 27.91332 106.96416 30999 ft 439 kts 177°
2026-04-29 11:35 27.85253 106.96738 31000 ft 439 kts 177°
2026-04-29 11:35 27.79192 106.97057 31000 ft 439 kts 177°
2026-04-29 11:36 27.73092 106.97379 30999 ft 439 kts 177°
2026-04-29 11:36 27.67008 106.97699 31000 ft 439 kts 177°
2026-04-29 11:37 27.60929 106.98019 31000 ft 439 kts 177°
2026-04-29 11:37 27.54806 106.98340 30999 ft 439 kts 177°
2026-04-29 11:38 27.48699 106.98659 31000 ft 439 kts 177°
2026-04-29 11:38 27.42609 106.98985 30999 ft 439 kts 177°
2026-04-29 11:39 27.36501 106.99316 31000 ft 439 kts 177°
2026-04-29 11:39 27.30409 106.99645 31000 ft 439 kts 177°
2026-04-29 11:40 27.24306 106.99975 31000 ft 439 kts 177°
2026-04-29 11:40 27.18254 107.00301 31000 ft 439 kts 177°
2026-04-29 11:41 27.12142 107.00629 30999 ft 439 kts 177°
2026-04-29 11:41 27.06084 107.00955 31000 ft 439 kts 177°
2026-04-29 11:42 26.99971 107.01283 30999 ft 439 kts 177°
2026-04-29 11:42 26.93874 107.01610 31000 ft 439 kts 177°
2026-04-29 11:43 26.87766 107.01913 30999 ft 439 kts 178°
2026-04-29 11:43 26.81693 107.02199 30999 ft 439 kts 177°
2026-04-29 11:44 26.75570 107.02513 31000 ft 439 kts 177°
2026-04-29 11:44 26.69490 107.02832 31000 ft 439 kts 177°
2026-04-29 11:45 26.63405 107.03149 31000 ft 439 kts 177°
2026-04-29 11:45 26.57295 107.03465 31000 ft 439 kts 177°
2026-04-29 11:46 26.51225 107.03773 31000 ft 439 kts 177°
2026-04-29 11:46 26.45128 107.04082 31000 ft 439 kts 177°
2026-04-29 11:47 26.39051 107.04327 31000 ft 439 kts 178°
2026-04-29 11:47 26.32991 107.04929 30998 ft 439 kts 166°
2026-04-29 11:48 26.27432 107.07573 31000 ft 439 kts 149°
2026-04-29 11:48 26.22754 107.11909 31002 ft 439 kts 134°
2026-04-29 11:49 26.18460 107.16732 30999 ft 439 kts 135°
2026-04-29 11:49 26.14097 107.21489 30999 ft 439 kts 135°
2026-04-29 11:50 26.09763 107.26238 31000 ft 439 kts 135°
2026-04-29 11:50 26.05404 107.31006 31000 ft 439 kts 135°
2026-04-29 11:51 26.01053 107.35760 31000 ft 439 kts 135°
2026-04-29 11:51 25.96689 107.40524 31000 ft 439 kts 135°
2026-04-29 11:52 25.92345 107.45261 31000 ft 439 kts 135°
2026-04-29 11:52 25.87983 107.50013 30999 ft 439 kts 135°
2026-04-29 11:53 25.83654 107.54723 30999 ft 439 kts 135°
2026-04-29 11:53 25.79283 107.59473 30999 ft 439 kts 135°
2026-04-29 11:54 25.74919 107.64211 30999 ft 439 kts 135°
2026-04-29 11:54 25.70559 107.68942 31000 ft 439 kts 135°
2026-04-29 11:55 25.66201 107.73719 31000 ft 439 kts 135°
2026-04-29 11:55 25.61882 107.78450 31000 ft 439 kts 135°
2026-04-29 11:56 25.57541 107.83196 31000 ft 439 kts 135°
2026-04-29 11:56 25.53183 107.87956 30999 ft 439 kts 135°
2026-04-29 11:57 25.48734 107.92641 30998 ft 439 kts 141°
2026-04-29 11:57 25.43475 107.95978 31000 ft 439 kts 161°
2026-04-29 11:58 25.37503 107.97241 31001 ft 440 kts 174°
2026-04-29 11:58 25.31420 107.97974 30999 ft 439 kts 173°
2026-04-29 11:59 25.25346 107.98763 30999 ft 439 kts 173°
2026-04-29 11:59 25.19288 107.99515 30999 ft 439 kts 173°
2026-04-29 12:00 25.13221 108.00265 31000 ft 439 kts 173°
2026-04-29 12:00 25.07164 108.01008 31000 ft 439 kts 174°
2026-04-29 12:01 25.01113 108.01746 30999 ft 439 kts 174°
2026-04-29 12:01 24.95077 108.02481 30999 ft 439 kts 174°
2026-04-29 12:02 24.89033 108.03216 31000 ft 439 kts 174°
2026-04-29 12:02 24.82970 108.03952 31000 ft 439 kts 174°
2026-04-29 12:03 24.76860 108.04692 30999 ft 439 kts 174°
2026-04-29 12:03 24.70825 108.05423 31000 ft 439 kts 174°
2026-04-29 12:04 24.64752 108.06158 31000 ft 439 kts 174°
2026-04-29 12:04 24.58651 108.06895 30999 ft 439 kts 174°
2026-04-29 12:05 24.52593 108.07626 31000 ft 439 kts 174°
2026-04-29 12:05 24.46544 108.08363 30999 ft 439 kts 173°
2026-04-29 12:06 24.40490 108.09100 31000 ft 439 kts 173°
2026-04-29 12:06 24.34440 108.09834 31000 ft 439 kts 173°
2026-04-29 12:07 24.28382 108.10570 31000 ft 439 kts 173°
2026-04-29 12:07 24.22326 108.11304 31000 ft 439 kts 173°
2026-04-29 12:08 24.16261 108.12039 30999 ft 439 kts 173°
2026-04-29 12:08 24.10212 108.12772 31000 ft 439 kts 173°
2026-04-29 12:09 24.04156 108.13504 30999 ft 439 kts 173°
2026-04-29 12:09 23.98063 108.14240 31000 ft 439 kts 173°
2026-04-29 12:10 23.92020 108.14970 30999 ft 439 kts 173°
2026-04-29 12:10 23.85889 108.15513 30998 ft 439 kts 181°
2026-04-29 12:11 23.79930 108.14291 31000 ft 439 kts 201°
2026-04-29 12:11 23.74572 108.11119 31000 ft 440 kts 212°
2026-04-29 12:12 23.69369 108.07691 30999 ft 439 kts 211°
2026-04-29 12:12 23.64094 108.04258 30999 ft 439 kts 211°
2026-04-29 12:13 23.58860 108.00823 31000 ft 439 kts 211°
2026-04-29 12:13 23.53640 107.97397 31000 ft 439 kts 211°
2026-04-29 12:14 23.48372 107.93938 31000 ft 439 kts 211°
2026-04-29 12:14 23.43149 107.90511 30999 ft 439 kts 211°
2026-04-29 12:15 23.37909 107.87073 30999 ft 439 kts 211°
2026-04-29 12:15 23.32693 107.83655 31000 ft 439 kts 211°
2026-04-29 12:16 23.27459 107.80226 31000 ft 439 kts 211°
2026-04-29 12:16 23.22249 107.76817 30999 ft 439 kts 211°
2026-04-29 12:17 23.17003 107.73388 31000 ft 439 kts 211°
2026-04-29 12:17 23.11595 107.70442 30999 ft 439 kts 194°
2026-04-29 12:18 23.05560 107.69589 30998 ft 440 kts 182°
2026-04-29 12:18 23.02513 107.69830 30994 ft 439 kts 167°
2026-04-29 12:18 22.99679 107.70947 31009 ft 439 kts 154°
2026-04-29 12:19 22.94343 107.74163 30996 ft 439 kts 143°
2026-04-29 12:19 22.90079 107.78859 30999 ft 439 kts 131°
2026-04-29 12:20 22.85938 107.83701 30999 ft 439 kts 133°
2026-04-29 12:20 22.81744 107.88513 30999 ft 439 kts 133°
2026-04-29 12:21 22.77550 107.93333 30999 ft 439 kts 133°
2026-04-29 12:21 22.73365 107.98129 30999 ft 439 kts 133°
2026-04-29 12:22 22.69160 108.02943 30999 ft 439 kts 133°
2026-04-29 12:22 22.64979 108.07723 30999 ft 439 kts 133°
2026-04-29 12:23 22.60762 108.12539 30999 ft 439 kts 133°
2026-04-29 12:23 22.56627 108.17396 30999 ft 439 kts 130°
2026-04-29 12:24 22.52763 108.22493 30999 ft 439 kts 129°
2026-04-29 12:24 22.48845 108.27565 31000 ft 439 kts 130°
2026-04-29 12:25 22.44913 108.32642 31000 ft 439 kts 130°
2026-04-29 12:26 22.39045 108.40203 31000 ft 439 kts 130°
2026-04-29 12:26 22.35102 108.45274 30999 ft 439 kts 130°
2026-04-29 12:27 22.31173 108.50319 31000 ft 439 kts 130°
2026-04-29 12:27 22.27245 108.55359 31000 ft 439 kts 130°
2026-04-29 12:28 22.23340 108.60364 31000 ft 439 kts 130°
2026-04-29 12:28 22.19383 108.65430 31000 ft 439 kts 130°
2026-04-29 12:29 22.15434 108.70480 30999 ft 439 kts 130°
2026-04-29 12:29 22.11553 108.75438 30999 ft 439 kts 130°
2026-04-29 12:30 22.07620 108.80483 30999 ft 439 kts 130°
2026-04-29 12:30 22.03709 108.85502 30999 ft 439 kts 130°
2026-04-29 12:31 21.99751 108.90572 31002 ft 444 kts 130°
2026-04-29 12:31 21.97730 108.93160 30999 ft 456 kts 130°
2026-04-29 12:31 21.95691 108.95769 30999 ft 457 kts 130°
2026-04-29 12:32 21.91612 109.00985 30999 ft 453 kts 130°
2026-04-29 12:32 21.87546 109.06180 31000 ft 453 kts 130°
2026-04-29 12:33 21.83483 109.11369 31000 ft 454 kts 130°
2026-04-29 12:33 21.79438 109.16568 30999 ft 454 kts 130°
2026-04-29 12:34 21.75381 109.21775 31000 ft 454 kts 130°
2026-04-29 12:34 21.71347 109.26946 31000 ft 454 kts 130°
2026-04-29 12:35 21.67263 109.32176 30999 ft 454 kts 130°
2026-04-29 12:35 21.63211 109.37359 30999 ft 454 kts 130°
2026-04-29 12:36 21.58904 109.42322 30999 ft 454 kts 138°
2026-04-29 12:36 21.53725 109.46165 31001 ft 454 kts 150°
2026-04-29 12:37 21.48257 109.49522 30999 ft 454 kts 149°
2026-04-29 12:37 21.42799 109.52949 31000 ft 454 kts 149°
2026-04-29 12:38 21.37348 109.56331 30999 ft 454 kts 150°
2026-04-29 12:38 21.34987 109.57744 30708 ft 459 kts 152°
2026-04-29 12:38 21.32107 109.59159 30064 ft 457 kts 159°
2026-04-29 12:38 21.29073 109.60098 29438 ft 450 kts 168°
2026-04-29 12:39 21.26012 109.60597 28822 ft 444 kts 172°
2026-04-29 12:39 21.22947 109.61021 28191 ft 439 kts 172°
2026-04-29 12:39 21.19969 109.61474 27570 ft 434 kts 171°
2026-04-29 12:39 21.17019 109.61933 26934 ft 430 kts 172°
2026-04-29 12:40 21.14053 109.62381 26223 ft 427 kts 172°
2026-04-29 12:40 21.11149 109.62811 25526 ft 424 kts 172°
2026-04-29 12:40 21.08254 109.63238 24827 ft 421 kts 172°
2026-04-29 12:40 21.05333 109.63667 24094 ft 419 kts 172°
2026-04-29 12:41 21.02468 109.64087 23117 ft 424 kts 172°
2026-04-29 12:41 20.99558 109.64511 22051 ft 429 kts 172°
2026-04-29 12:41 20.96605 109.64941 20960 ft 426 kts 172°
2026-04-29 12:41 20.93738 109.65356 19882 ft 418 kts 172°
2026-04-29 12:42 20.90926 109.65764 18812 ft 411 kts 172°
2026-04-29 12:42 20.88133 109.66168 17734 ft 404 kts 172°
2026-04-29 12:42 20.85376 109.66567 16652 ft 398 kts 172°
2026-04-29 12:42 20.82921 109.66923 15674 ft 392 kts 172°
2026-04-29 12:43 20.80253 109.67308 14596 ft 386 kts 172°
2026-04-29 12:43 20.77607 109.67690 13512 ft 381 kts 172°
2026-04-29 12:43 20.75022 109.68063 12394 ft 377 kts 172°
2026-04-29 12:43 20.72462 109.68433 11272 ft 373 kts 172°
2026-04-29 12:44 20.69925 109.68799 10149 ft 369 kts 172°
2026-04-29 12:44 20.67418 109.69160 9183 ft 360 kts 172°
2026-04-29 12:44 20.65002 109.69508 9069 ft 329 kts 172°
2026-04-29 12:44 20.62787 109.69827 9101 ft 326 kts 172°
2026-04-29 12:45 20.60543 109.70150 9100 ft 326 kts 172°
2026-04-29 12:45 20.58294 109.70473 9100 ft 326 kts 172°
2026-04-29 12:45 20.56039 109.70798 9092 ft 327 kts 172°
2026-04-29 12:45 20.53775 109.71124 8633 ft 330 kts 172°
2026-04-29 12:46 20.51503 109.71461 7661 ft 330 kts 170°
2026-04-29 12:46 20.49375 109.72258 6761 ft 326 kts 148°
2026-04-29 12:46 20.47650 109.73756 5898 ft 322 kts 137°
2026-04-29 12:46 20.45986 109.75358 4980 ft 320 kts 139°
2026-04-29 12:47 20.44331 109.76895 4091 ft 317 kts 139°
2026-04-29 12:47 20.42689 109.78416 3545 ft 303 kts 139°
2026-04-29 12:47 20.41139 109.79852 3060 ft 290 kts 139°
2026-04-29 12:47 20.39656 109.81225 2651 ft 277 kts 139°
2026-04-29 12:48 20.38240 109.82533 2303 ft 263 kts 139°
2026-04-29 12:48 20.36884 109.83785 1951 ft 252 kts 139°
2026-04-29 12:48 20.35585 109.84981 1643 ft 241 kts 139°
2026-04-29 12:48 20.34374 109.86097 1717 ft 215 kts 139°
2026-04-29 12:49 20.33347 109.87047 2158 ft 188 kts 139°
2026-04-29 12:49 20.32299 109.88014 2627 ft 219 kts 139°
2026-04-29 12:49 20.31070 109.89148 2667 ft 245 kts 139°
2026-04-29 12:49 20.29768 109.90348 2625 ft 247 kts 139°
2026-04-29 12:50 20.28468 109.91546 2626 ft 249 kts 139°
2026-04-29 12:50 20.27156 109.92755 2626 ft 249 kts 139°
2026-04-29 12:50 20.25855 109.93954 2626 ft 249 kts 139°
2026-04-29 12:50 20.24548 109.95158 2626 ft 249 kts 139°
2026-04-29 12:51 20.23210 109.96389 2631 ft 267 kts 139°
2026-04-29 12:51 20.21767 109.97716 2625 ft 277 kts 139°
2026-04-29 12:51 20.20284 109.99082 2626 ft 279 kts 139°
2026-04-29 12:51 20.18823 110.00426 2626 ft 280 kts 139°
2026-04-29 12:52 20.17350 110.01781 2626 ft 280 kts 139°
2026-04-29 12:52 20.15882 110.03130 2626 ft 280 kts 139°
2026-04-29 12:52 20.14408 110.04485 2626 ft 280 kts 139°
2026-04-29 12:52 20.13071 110.05713 2626 ft 280 kts 139°
2026-04-29 12:53 20.11595 110.07069 2626 ft 280 kts 139°
2026-04-29 12:53 20.10113 110.08377 2624 ft 280 kts 146°
2026-04-29 12:53 20.08319 110.09193 2632 ft 280 kts 164°
2026-04-29 12:53 20.06445 110.09759 2626 ft 280 kts 163°
2026-04-29 12:54 20.04598 110.10396 2626 ft 280 kts 161°
2026-04-29 12:54 20.02773 110.11053 2626 ft 280 kts 161°
2026-04-29 12:54 20.00928 110.11729 2626 ft 278 kts 161°
2026-04-29 12:54 19.99176 110.12374 2583 ft 254 kts 161°
2026-04-29 12:55 19.97569 110.12968 2485 ft 234 kts 161°
2026-04-29 12:55 19.96208 110.13701 2414 ft 211 kts 139°
2026-04-29 12:55 19.95440 110.14933 2229 ft 191 kts 108°
2026-04-29 12:55 19.95255 110.16248 2002 ft 175 kts 88°
2026-04-29 12:56 19.95305 110.17491 2034 ft 169 kts 89°
2026-04-29 12:56 19.95296 110.18742 2022 ft 169 kts 90°
2026-04-29 12:56 19.95293 110.20006 2033 ft 169 kts 90°
2026-04-29 12:56 19.95289 110.21240 2047 ft 168 kts 90°
2026-04-29 12:57 19.95293 110.22501 2015 ft 169 kts 90°
2026-04-29 12:57 19.95297 110.23749 2024 ft 170 kts 90°
2026-04-29 12:57 19.95303 110.24998 2025 ft 169 kts 89°
2026-04-29 12:57 19.95308 110.26252 2026 ft 169 kts 90°
2026-04-29 12:58 19.95313 110.27515 2026 ft 169 kts 90°
2026-04-29 12:58 19.95318 110.28767 2026 ft 169 kts 90°
2026-04-29 12:58 19.95323 110.30010 2027 ft 169 kts 90°
2026-04-29 12:58 19.95328 110.31261 2027 ft 169 kts 90°
2026-04-29 12:59 19.95333 110.32529 2027 ft 169 kts 90°
2026-04-29 12:59 19.95338 110.33778 2028 ft 169 kts 89°
2026-04-29 12:59 19.95342 110.35043 1914 ft 170 kts 90°
2026-04-29 12:59 19.95346 110.36278 1677 ft 169 kts 90°
2026-04-29 13:00 19.95350 110.37524 1454 ft 168 kts 89°
2026-04-29 13:00 19.95353 110.38773 1225 ft 168 kts 90°
2026-04-29 13:00 19.95357 110.39999 1002 ft 167 kts 89°
2026-04-29 13:00 19.95361 110.41231 778 ft 166 kts 89°
2026-04-29 13:01 19.95364 110.42465 557 ft 165 kts 90°
2026-04-29 13:01 19.95365 110.43668 305 ft 159 kts 89°
2026-04-29 13:01 19.95371 110.44856 136 ft 159 kts 90°
2026-04-29 13:01 19.95374 110.45972 85 ft 136 kts 90°
2026-04-29 13:02 19.95375 110.46632 84 ft 46 kts 90°
2026-04-29 13:02 19.95368 110.46886 84 ft 34 kts 98°
2026-04-29 13:02 19.95311 110.47074 84 ft 20 kts 115°
2026-04-29 13:02 19.95234 110.47137 84 ft 0 kts 207°
2026-04-29 13:03 19.95230 110.47134 84 ft 3 kts 214°
2026-04-29 13:03 19.95207 110.47065 84 ft 11 kts 269°
2026-04-29 13:03 19.95206 110.46983 84 ft 11 kts 269°
2026-04-29 13:03 19.95206 110.46889 84 ft 13 kts 270°
2026-04-29 13:04 19.95203 110.46788 84 ft 14 kts 266°
2026-04-29 13:04 19.95204 110.46684 84 ft 14 kts 272°
2026-04-29 13:04 19.95207 110.46555 84 ft 28 kts 270°
2026-04-29 13:04 19.95209 110.46320 84 ft 30 kts 268°
2026-04-29 13:05 19.95204 110.46115 84 ft 23 kts 272°
2026-04-29 13:05 19.95198 110.45982 84 ft 14 kts 232°
2026-04-29 13:05 19.95101 110.45963 84 ft 16 kts 179°
2026-04-29 13:05 19.94992 110.45968 84 ft 13 kts 178°
2026-04-29 13:06 19.94985 110.45933 84 ft 5 kts 301°
2026-04-29 13:06 19.95010 110.45912 84 ft 4 kts 335°
2026-04-29 13:06 19.95030 110.45911 84 ft 3 kts 43°
2026-04-29 13:06 19.95054 110.46062 84 ft 14 kts 140°
2026-04-29 13:07 19.95013 110.46069 84 ft 2 kts 179°
2026-04-29 13:07 19.95009 110.46069 84 ft 0 kts 180°